Home   Weather   Ellwangen (Jagst)   Past weeks

Flag for Germany Past Weather in Ellwangen (Jagst), Baden-Württemberg, Germany — Yesterday and Last 2 Weeks

Now
34 °F

Scattered clouds.


Feels Like: 26 °F
Forecast: 23 / 34 °F
Wind: 9 mph from East

Location: Niederstetten

Current Time: Dec 4, 2016 at 3:27:16 pm

Latest Report: Dec 4, 2016 at 2:20 pm


Visibility: N/A

Pressure: 30.30 "Hg

Humidity: 65%

Dew Point: 23 °F

Location of Ellwangen (Jagst)Location

Past Weather in Ellwangen (Jagst) — Graph

°F

Ellwangen (Jagst) Temperature Yesterday

Maximum temperature yesterday: 32 °F (at 1:20 pm)
Minimum temperature yesterday: 25 °F (at 6:20 am)
Average temperature yesterday: 27 °F

High & Low Weather Summary for the Past Weeks

 TemperatureHumidityPressure
High54 °F (Nov 20, 2:20 pm)100% (Nov 19, 9:20 pm)30.48 "Hg (Nov 19, 9:20 pm)
Low19 °F (Dec 4, 6:20 am)51% (Nov 20, 2:20 pm)29.62 "Hg (Nov 21, 12:20 pm)
Average37 °F84%30.09 "Hg
* Reported Nov 19 1:20 pm — Dec 4 1:20 pm, Ellwangen (Jagst), Weather by CustomWeather, © 2016

Note: Actual official high and low records may vary slightly from our data, if they occured in-between our weather recording intervals... More about our weather records

Advertising

Ellwangen (Jagst) Weather History for the Previous 24 Hours

Scroll right to see more
 ConditionsComfort  
Time TempWeatherWind HumidityBarometerVisibility
1:20 pm
Sun, Dec 4
34 °FScattered clouds.13 mph65%30.30 "HgN/A
12:20 pm32 °FPassing clouds.12 mph69%30.30 "HgN/A
11:20 am30 °FScattered clouds.10 mph80%30.30 "HgN/A
10:20 am28 °FScattered clouds.8 mph80%30.30 "HgN/A
9:20 am25 °FPassing clouds.7 mph86%30.30 "HgN/A
8:20 am21 °FPassing clouds.6 mph93%30.30 "HgN/A
7:20 am19 °FPassing clouds.8 mph93%30.27 "HgN/A
6:20 am19 °FCold.5 mph93%30.27 "HgN/A
5:20 am21 °FCold.7 mph93%30.27 "HgN/A
4:20 am23 °FCold.7 mph86%30.27 "HgN/A
3:20 am23 °FCold.7 mph93%30.27 "HgN/A
2:20 am23 °FCold.6 mph93%30.27 "HgN/A
1:20 am25 °FCold.5 mph93%30.27 "HgN/A
12:20 am25 °FCold.6 mph93%30.27 "HgN/A
11:20 pm
Sat, Dec 3
25 °FCold.7 mph93%30.27 "HgN/A
10:20 pm25 °FCold.6 mph93%30.24 "HgN/A
9:20 pm27 °FChilly.6 mph93%30.24 "HgN/A
8:20 pm27 °FFog.6 mph93%30.24 "Hg3 mi
7:20 pm27 °FFog.6 mph100%30.24 "Hg3 mi
6:20 pm27 °FFog.5 mph100%30.24 "Hg4 mi
5:20 pm28 °FFog.5 mph93%30.21 "Hg4 mi
4:20 pm28 °FFog.5 mph93%30.21 "Hg5 mi
3:20 pm30 °FPassing clouds.6 mph86%30.21 "HgN/A
Weather by CustomWeather, © 2016

See weather overviewHow to use our weather pages